Regional Weather Roundup
Issued by NWS

Home | Current Version | Previous Version | Graphics & Text | Print | Product List | Glossary On
Versions: 1 2 3 4 5 6 7 8 9 10 11 12 13 14 15 16 17 18 19 20 21 22 23 24 25 26 27 28 29 30 31 32 33 34 35 36 37 38 39 40 41 42 43 44 45 46 47 48 49 50
000
ASUS43 KMKX 022300
RWRWI

WISCONSIN REGIONAL WEATHER ROUNDUP
NATIONAL WEATHER SERVICE MILWAUKEE/SULLIVAN WI
600 PM CDT SUN AUG 02 2015

NOTE: "FAIR" INDICATES FEW OR NO CLOUDS BELOW 12,000 FEET WITH NO
SIGNIFICANT WEATHER AND/OR OBSTRUCTIONS TO VISIBILITY.

WIZ001-002-006>008-014>016-023>028-030000-
NORTHWEST WISCONSIN

CITY           SKY/WX    TMP DP  RH WIND       PRES   REMARKS
SUPERIOR ARPT  MOSUNNY   76  56  50 NW16G25   29.68R
ASHLAND        MOSUNNY   73  58  59 NW12G20   29.67S
HAYWARD        MOSUNNY   75  55  49 N9G21     29.70R
SIREN          SUNNY     77  53  42 NW18G24   29.71R
CUMBERLAND     MOSUNNY   75  54  46 W14G21    29.70S
RICE LAKE      MOSUNNY   77  58  51 W10       29.71R
CHETEK         MOSUNNY   79  63  57 W9        29.69R HX  80
LADYSMITH      SUNNY     78  57  48 NW16G24   29.69R
EAU CLAIRE     MOSUNNY   80  60  50 NW14      29.68R HX  81
MENOMONIE      MOSUNNY   81  59  47 NW10      29.69S HX  81
NEW RICHMOND   SUNNY     78  57  48 NW12G23   29.72R
OSCEOLA        PTSUNNY   78  59  52 NW8       29.74R
$$

WIZ003>005-009-010-017-018-030000-
NORTH CENTRAL WISCONSIN

CITY           SKY/WX    TMP DP  RH WIND       PRES   REMARKS
MANITOWISH WTR SUNNY     72  56  56 NW13G20   29.66S
ARBOR VITAE    SUNNY     74  56  52 NW9G21    29.66R
WOODRUFF       SUNNY     74  56  52 NW9G21    29.66R
RHINELANDER    MOSUNNY   73  55  53 NW10G20   29.66R
EAGLE RIVER    SUNNY     73  51  45 NW18      29.64R
LAND O LAKES   MOSUNNY   73  52  48 NW10G22   29.66R
PHILLIPS       SUNNY     75  58  56 NW7       29.66R
TOMAHAWK       MOSUNNY   73  63  71 NW7       29.66R
MEDFORD        PTSUNNY   74  62  66 NW13      29.67R
MERRILL        NOT AVBL
$$

WIZ029-030-035-036-043>047-030000-
CENTRAL WISCONSIN

CITY           SKY/WX    TMP DP  RH WIND       PRES   REMARKS
WAUSAU         MOSUNNY   78  62  57 NW10      29.62R HX  80
MOSINEE        SUNNY     75  64  69 NW13      29.65R
MARSHFIELD     SUNNY     79  58  48 NW16      29.66R HX  80
STEVENS POINT  MOSUNNY   75  63  66 NW13G18   29.64R
WAUPACA        CLOUDY    77  65  65 NW13G32   29.60R
WAUTOMA        NOT AVBL
WISC RAPIDS    MOSUNNY   80  64  58 N14G26    29.65R HX  82
CAMP DOUGLAS   NOT AVBL
$$

WIZ011>013-019>022-031-037>040-048>050-030000-
NORTHEAST WISCONSIN

CITY           SKY/WX    TMP DP  RH WIND       PRES   REMARKS
ANTIGO         PTSUNNY   74  63  67 NW8       29.64R
SHAWANO        CLOUDY    71  64  78 E6        29.61R
OCONTO         CLOUDY    63  63 100 CALM      29.58F
STURGEON BAY   CLOUDY    63  57  82 CALM      29.60F
GREEN BAY      LGT RAIN  65  63  93 N6        29.60S
MANITOWOC      TSTM      64  63  94 MISG      29.60R
APPLETON       PTSUNNY   72  59  64 NE17      29.62R
CLINTONVILLE   CLOUDY    70  63  78 CALM      29.61R
OSHKOSH        CLOUDY    72  65  78 N9        29.59R
$$

WIZ032>034-041-042-053>061-030000-
SOUTHWEST WISCONSIN

CITY           SKY/WX    TMP DP  RH WIND       PRES   REMARKS
LA CROSSE      MOSUNNY   87  65  47 NW18G26   29.65R HX  89
SPARTA         PTSUNNY   85  63  46 NW18G26   29.66R HX  86
VIROQUA        MOSUNNY   84  62  47 W17G25    29.69R HX  85
BOSCOBEL       SUNNY     92  61  35 W16G23    29.65R HX  92
PRAIRIE DU CHI SUNNY     91  58  32 W15G26    29.66R HX  90
PLATTEVILLE    MOSUNNY   88  74  63 W18G25    29.68S HX  96
$$

WIZ056-057-062-063-064-067-068-030000-
SOUTH CENTRAL WISCONSIN

CITY           SKY/WX    TMP DP  RH WIND       PRES   REMARKS
REEDSBURG      MOSUNNY   90  63  41 W20G30    29.61R HX  91
BARABOO/DELLS  PTSUNNY   89  58  33 W21G30    29.61R HX  88
LONE ROCK      NOT AVBL
MINERAL POINT  MOSUNNY   88  72  58 W17G23    29.67S HX  94
MADISON        MOSUNNY   89  69  51 W13G23    29.59F HX  93
MIDDLETON      MOSUNNY   92  65  41 W18G29    29.62F HX  94
WATERTOWN      MOSUNNY   87  71  59 SW22G32   29.57F HX  93
MONROE         MOSUNNY   88  72  58 SW26      29.67R HX  94
JANESVILLE     MOSUNNY   90  70  51 SW23G32   29.63S HX  95
$$

WIZ051-052-058>065-066-070>072-030000-
SOUTHEAST WISCONSIN

CITY           SKY/WX    TMP DP  RH WIND       PRES   REMARKS
MILWAUKEE      PTSUNNY   90  67  46 SW28G35   29.59R HX  93
WAUKESHA       MOSUNNY   88  68  51 SW21G32   29.60F HX  91
MILWAUKEE/TIMM SUNNY     88  64  45 SW25G37   29.58S HX  89
RACINE         SUNNY     89  68  49 SW28G41   29.59F HX  93
BURLINGTON     SUNNY     87  67  50 SW18G35   29.62S HX  89
KENOSHA        SUNNY     89  69  51 SW25G38   29.61F HX  93
FOND DU LAC    TSTM      69  64  84 CALM      29.59F
SHEBOYGAN      TSTM      66  62  87 VRB5      29.60R FOG
WEST BEND      CLOUDY    86  64  48 SW15G25   29.57R HX  87
JUNEAU         PTSUNNY   87  68  53 SW24G36   29.58F HX  91
$$

LSZ147-162-030000-
LAKE SUPERIOR

STATION/POSITION TIME  TEMP    WIND        PRES    WAVE
                       AIR SEA DIR/SP/G            HT/PER
                 (UTC) (F)     (DEG/KT/KT) (MB)    (FT/S)
W MID LAKE BUOY  2150   60 57  260/ 12/ 16 1002.3F   1/ 3
DEVILS ISLAND    2200   65     270/ 12/ 15 1003.5R
PORT WING        2200   67     270/  5/  8 1005.1R
SAXON HARBOR     2200   74                 1003.4F
$$

LMZ867-665-643>646-030000-
LAKE MICHIGAN

STATION/POSITION TIME  TEMP    WIND        PRES    WAVE
                       AIR SEA DIR/SP/G            HT/PER
                 (UTC) (F)     (DEG/KT/KT) (MB)    (FT/S)
CHAMBERS ISLAND  2200   65     140/  2/  5 1002.0R
S GREEN BAY BUOY 2200   66 68  140/  8/ 10 1003.5
N MID LAKE BUOY  2150   68 69  170/  4/  4 1000.3R   2/ 5
NORTHPORT PIER   2200   67     160/  5/ 14 1001.4S
ALGOMA LAKESHORE 2212          210/  8/  9   N/A
KEWAUNEE LAKESHO 2200   60      20/  2/  5 1001.6R
SHEBOYGAN LAKESH 2200   88     250/ 18/ 22  999.9R
PORT WASHINGTON  2200   91     240/ 13     1000.7
ATWATER BUOY     2200   81 51  220/ 19/ 29 1002.6F
MILWAUKEE LAKESH 2200   89     240/ 26/ 33   N/A
KENOSHA   LAKESH 2200   91     230/ 21/ 33 1002.4F
$$

TC  - TEMPERATURE IN CELSIUS
VSB - VISIBILITY IN STATUTE MILES
WCI - WIND CHILL INDEX
HX  - HEAT INDEX




USA.gov is the U.S. government's official web portal to all federal, state and local government web resources and services.